Time,TemperatureF,DewpointF,PressureIn,WindDirection,WindDirectionDegrees,WindSpeedMPH,WindSpeedGustMPH,Humidity,HourlyPrecipIn,Conditions,Clouds,dailyrainin,SolarRadiationWatts/m^2,SoftwareType,DateUTC
2013-07-31 00:00:00,78.3,75.8,30.12,West,281,1.0,3.0,92,0.00,,CLR,0.01,0.00,VWS V14.01,2013-07-31 04:00:00,
2013-07-31 00:01:00,78.3,75.8,30.12,West,281,1.0,3.0,92,0.00,,CLR,0.01,0.00,VWS V14.01,2013-07-31 04:01:00,
2013-07-31 00:06:00,78.2,75.7,30.12,West,281,0.0,3.0,92,0.00,,CLR,0.00,0.00,VWS V14.01,2013-07-31 04:06:00,
2013-07-31 00:11:00,78.1,75.6,30.12,NW,307,0.0,3.0,92,0.00,,CLR,0.00,0.00,VWS V14.01,2013-07-31 04:11:00,
2013-07-31 00:16:00,78.1,75.6,30.12,WSW,248,2.0,3.0,92,0.00,,CLR,0.00,0.00,VWS V14.01,2013-07-31 04:16:00,
2013-07-31 00:21:00,78.1,75.6,30.12,WSW,238,2.0,3.0,92,0.00,,CLR,0.00,0.00,VWS V14.01,2013-07-31 04:21:00,
2013-07-31 00:26:00,78.1,75.6,30.12,WSW,239,2.0,3.0,92,0.00,,CLR,0.00,0.00,VWS V14.01,2013-07-31 04:26:00,
2013-07-31 00:31:00,78.0,75.5,30.12,WSW,240,2.0,2.0,92,0.00,,CLR,0.00,0.00,VWS V14.01,2013-07-31 04:31:00,
2013-07-31 00:36:00,78.0,75.5,30.12,WSW,240,1.0,2.0,92,0.00,,CLR,0.00,0.00,VWS V14.01,2013-07-31 04:36:00,
2013-07-31 00:41:00,77.9,75.4,30.12,WSW,240,0.0,1.0,92,0.00,,CLR,0.00,0.00,VWS V14.01,2013-07-31 04:41:00,
2013-07-31 00:47:00,77.9,75.4,30.12,WSW,240,2.0,3.0,92,0.00,,CLR,0.00,0.00,VWS V14.01,2013-07-31 04:47:00,
2013-07-31 00:52:00,77.9,75.4,30.12,WSW,240,1.0,1.0,92,0.00,,CLR,0.00,0.00,VWS V14.01,2013-07-31 04:52:00,
2013-07-31 00:57:00,77.8,75.3,30.12,WSW,240,0.0,0.0,92,0.00,,CLR,0.00,0.00,VWS V14.01,2013-07-31 04:57:00,
2013-07-31 01:02:00,77.8,75.6,30.12,WSW,240,1.0,1.0,93,0.00,,CLR,0.00,0.00,VWS V14.01,2013-07-31 05:02:00,
2013-07-31 01:07:00,77.8,75.6,30.12,WSW,240,1.0,2.0,93,0.00,,CLR,0.00,0.00,VWS V14.01,2013-07-31 05:07:00,
2013-07-31 01:12:00,77.7,75.5,30.12,WSW,240,2.0,2.0,93,0.00,,CLR,0.00,0.00,VWS V14.01,2013-07-31 05:12:00,
2013-07-31 01:17:00,77.7,75.5,30.12,WSW,240,0.0,0.0,93,0.00,,CLR,0.00,0.00,VWS V14.01,2013-07-31 05:17:00,
2013-07-31 01:22:00,77.6,75.4,30.12,WSW,241,0.0,1.0,93,0.00,,CLR,0.00,0.00,VWS V14.01,2013-07-31 05:22:00,
2013-07-31 01:27:00,77.6,75.4,30.12,WSW,242,0.0,0.0,93,0.00,,CLR,0.00,0.00,VWS V14.01,2013-07-31 05:27:00,
2013-07-31 01:32:00,77.6,75.4,30.12,WSW,242,1.0,1.0,93,0.00,,CLR,0.00,0.00,VWS V14.01,2013-07-31 05:32:00,
2013-07-31 01:37:00,77.5,75.3,30.12,WSW,242,0.0,0.0,93,0.00,,CLR,0.00,0.00,VWS V14.01,2013-07-31 05:37:00,
2013-07-31 01:42:00,77.5,75.3,30.11,WSW,242,0.0,0.0,93,0.00,,CLR,0.00,0.00,VWS V14.01,2013-07-31 05:42:00,
2013-07-31 01:47:00,77.5,75.3,30.11,WSW,243,0.0,0.0,93,0.00,,CLR,0.00,0.00,VWS V14.01,2013-07-31 05:47:00,
2013-07-31 01:52:00,77.4,75.2,30.11,WSW,243,0.0,0.0,93,0.00,,CLR,0.00,0.00,VWS V14.01,2013-07-31 05:52:00,
2013-07-31 01:57:00,77.4,75.5,30.11,WSW,244,0.0,0.0,94,0.00,,CLR,0.00,0.00,VWS V14.01,2013-07-31 05:57:00,
2013-07-31 02:02:00,77.4,75.5,30.10,WSW,244,1.0,1.0,94,0.00,,FEW075,0.00,0.00,VWS V14.01,2013-07-31 06:02:00,
2013-07-31 02:07:00,77.4,75.5,30.10,WSW,244,1.0,1.0,94,0.00,,FEW075,0.00,0.00,VWS V14.01,2013-07-31 06:07:00,
2013-07-31 02:12:00,77.3,75.4,30.10,WSW,244,0.0,0.0,94,0.00,,FEW075,0.00,0.00,VWS V14.01,2013-07-31 06:12:00,
2013-07-31 02:17:00,77.3,75.4,30.10,WSW,244,0.0,0.0,94,0.00,,FEW075,0.00,0.00,VWS V14.01,2013-07-31 06:17:00,
2013-07-31 02:22:00,77.3,75.4,30.10,WSW,244,0.0,1.0,94,0.00,,FEW075,0.00,0.00,VWS V14.01,2013-07-31 06:22:00,
2013-07-31 02:27:00,77.3,75.4,30.10,WNW,301,0.0,0.0,94,0.00,,FEW075,0.00,0.00,VWS V14.01,2013-07-31 06:27:00,
2013-07-31 02:32:00,77.2,75.3,30.10,WNW,301,0.0,0.0,94,0.00,,FEW075,0.00,0.00,VWS V14.01,2013-07-31 06:32:00,
2013-07-31 02:37:00,77.2,75.3,30.10,WNW,301,0.0,1.0,94,0.00,,FEW075,0.00,0.00,VWS V14.01,2013-07-31 06:37:00,
2013-07-31 02:42:00,77.2,75.3,30.10,WNW,301,0.0,1.0,94,0.00,,FEW075,0.00,0.00,VWS V14.01,2013-07-31 06:42:00,
2013-07-31 02:47:00,77.2,75.3,30.09,WNW,301,0.0,0.0,94,0.00,,FEW075,0.00,0.00,VWS V14.01,2013-07-31 06:47:00,
2013-07-31 02:52:00,77.1,75.2,30.09,NW,309,1.0,1.0,94,0.00,,FEW075,0.00,0.00,VWS V14.01,2013-07-31 06:52:00,
2013-07-31 02:57:00,77.1,75.2,30.09,NW,311,0.0,0.0,94,0.00,,FEW075,0.00,0.00,VWS V14.01,2013-07-31 06:57:00,
2013-07-31 03:02:00,77.1,75.2,30.09,NW,311,0.0,0.0,94,0.00,,FEW075,0.00,0.00,VWS V14.01,2013-07-31 07:02:00,
2013-07-31 03:07:00,77.0,75.1,30.09,NW,312,1.0,1.0,94,0.00,,FEW075,0.00,0.00,VWS V14.01,2013-07-31 07:07:00,
2013-07-31 03:12:00,76.9,75.1,30.09,NW,312,0.0,0.0,94,0.00,,FEW075,0.00,0.00,VWS V14.01,2013-07-31 07:12:00,
2013-07-31 03:17:00,76.9,75.1,30.09,NW,312,0.0,0.0,94,0.00,,FEW075,0.00,0.00,VWS V14.01,2013-07-31 07:17:00,
2013-07-31 03:22:00,76.8,74.9,30.08,NW,314,0.0,0.0,94,0.00,,CLR,0.00,0.00,VWS V14.01,2013-07-31 07:22:00,
2013-07-31 03:27:00,76.7,75.2,30.08,NW,315,0.0,1.0,95,0.00,,CLR,0.00,0.00,VWS V14.01,2013-07-31 07:27:00,
2013-07-31 03:32:00,76.7,75.2,30.08,NW,315,0.0,1.0,95,0.00,,CLR,0.00,0.00,VWS V14.01,2013-07-31 07:32:00,
2013-07-31 03:37:00,76.7,75.2,30.08,NW,315,0.0,0.0,95,0.00,,CLR,0.00,0.00,VWS V14.01,2013-07-31 07:37:00,
2013-07-31 03:42:00,76.6,75.1,30.08,NW,320,0.0,0.0,95,0.00,,CLR,0.00,0.00,VWS V14.01,2013-07-31 07:42:00,
2013-07-31 03:47:00,76.6,75.1,30.08,NW,324,1.0,1.0,95,0.00,,CLR,0.00,0.00,VWS V14.01,2013-07-31 07:47:00,
2013-07-31 03:52:00,76.6,75.1,30.08,NW,321,1.0,1.0,95,0.00,,CLR,0.00,0.00,VWS V14.01,2013-07-31 07:52:00,
2013-07-31 03:57:00,76.5,75.0,30.08,NW,321,0.0,0.0,95,0.00,,CLR,0.00,0.00,VWS V14.01,2013-07-31 07:57:00,
2013-07-31 04:02:00,76.5,75.0,30.08,NW,321,0.0,0.0,95,0.00,,CLR,0.00,0.00,VWS V14.01,2013-07-31 08:02:00,
2013-07-31 04:07:00,76.4,74.9,30.08,NW,321,0.0,0.0,95,0.00,,CLR,0.00,0.00,VWS V14.01,2013-07-31 08:07:00,
2013-07-31 04:12:00,76.4,74.9,30.08,NW,321,0.0,0.0,95,0.00,,CLR,0.00,0.00,VWS V14.01,2013-07-31 08:12:00,
2013-07-31 04:17:00,76.3,74.8,30.08,NW,321,0.0,0.0,95,0.00,,CLR,0.00,0.00,VWS V14.01,2013-07-31 08:17:00,
2013-07-31 04:22:00,76.2,74.7,30.08,NW,322,1.0,1.0,95,0.00,,CLR,0.00,0.00,VWS V14.01,2013-07-31 08:22:00,
2013-07-31 04:27:00,76.2,74.7,30.08,NW,323,0.0,0.0,95,0.00,,CLR,0.00,0.00,VWS V14.01,2013-07-31 08:27:00,
2013-07-31 04:32:00,76.1,74.6,30.08,NW,323,1.0,1.0,95,0.00,,CLR,0.00,0.00,VWS V14.01,2013-07-31 08:32:00,
2013-07-31 04:37:00,76.1,74.9,30.08,NNW,327,0.0,0.0,96,0.00,,CLR,0.00,0.00,VWS V14.01,2013-07-31 08:37:00,
2013-07-31 04:42:00,76.1,74.9,30.08,NNW,327,0.0,0.0,96,0.00,,CLR,0.00,0.00,VWS V14.01,2013-07-31 08:42:00,
2013-07-31 04:47:00,76.0,74.8,30.08,NNW,327,0.0,0.0,96,0.00,,CLR,0.00,0.00,VWS V14.01,2013-07-31 08:47:00,
2013-07-31 04:52:00,76.0,74.8,30.08,NNW,327,0.0,0.0,96,0.00,,CLR,0.00,0.00,VWS V14.01,2013-07-31 08:52:00,
2013-07-31 04:57:00,76.0,74.8,30.09,NNW,327,2.0,2.0,96,0.00,,CLR,0.00,0.00,VWS V14.01,2013-07-31 08:57:00,
2013-07-31 05:02:00,76.0,74.8,30.09,NNW,327,0.0,0.0,96,0.00,,CLR,0.00,0.00,VWS V14.01,2013-07-31 09:02:00,
2013-07-31 05:07:00,76.0,74.8,30.09,NNW,327,0.0,0.0,96,0.00,,CLR,0.00,0.00,VWS V14.01,2013-07-31 09:07:00,
2013-07-31 05:12:00,75.9,74.7,30.09,NNW,327,0.0,0.0,96,0.00,,CLR,0.00,0.00,VWS V14.01,2013-07-31 09:12:00,
2013-07-31 05:17:00,75.9,74.7,30.09,NNW,327,0.0,0.0,96,0.00,,CLR,0.00,0.00,VWS V14.01,2013-07-31 09:17:00,
2013-07-31 05:22:00,75.8,74.6,30.10,NNW,327,0.0,0.0,96,0.00,,CLR,0.00,0.00,VWS V14.01,2013-07-31 09:22:00,
2013-07-31 05:27:00,75.8,74.6,30.10,NNW,327,1.0,1.0,96,0.00,,CLR,0.00,0.00,VWS V14.01,2013-07-31 09:27:00,
2013-07-31 05:32:00,75.7,74.5,30.10,NNW,327,0.0,0.0,96,0.00,,CLR,0.00,0.00,VWS V14.01,2013-07-31 09:32:00,
2013-07-31 05:37:00,75.7,74.5,30.10,NNW,327,0.0,1.0,96,0.00,,CLR,0.00,0.00,VWS V14.01,2013-07-31 09:37:00,
2013-07-31 05:42:00,75.7,74.5,30.09,NNW,327,0.0,0.0,96,0.00,,CLR,0.00,0.00,VWS V14.01,2013-07-31 09:42:00,
2013-07-31 05:47:00,75.6,74.4,30.10,NNW,327,0.0,0.0,96,0.00,,CLR,0.00,0.00,VWS V14.01,2013-07-31 09:47:00,
2013-07-31 05:52:00,75.6,74.4,30.10,NNW,327,0.0,0.0,96,0.00,,CLR,0.00,0.00,VWS V14.01,2013-07-31 09:52:00,
2013-07-31 05:57:00,75.6,74.4,30.10,NNW,327,0.0,0.0,96,0.00,,CLR,0.00,0.00,VWS V14.01,2013-07-31 09:57:00,
2013-07-31 06:02:00,75.6,74.4,30.10,NNW,327,0.0,0.0,96,0.00,,SCT050,0.00,0.00,VWS V14.01,2013-07-31 10:02:00,
2013-07-31 06:07:00,75.5,74.3,30.10,NNW,327,0.0,0.0,96,0.00,,SCT050,0.00,0.00,VWS V14.01,2013-07-31 10:07:00,
2013-07-31 06:12:00,75.5,74.3,30.10,NNW,327,0.0,0.0,96,0.00,,SCT050,0.00,0.00,VWS V14.01,2013-07-31 10:12:00,
2013-07-31 06:17:00,75.4,74.2,30.10,NNW,327,0.0,0.0,96,0.00,,SCT050,0.00,0.00,VWS V14.01,2013-07-31 10:17:00,
2013-07-31 06:22:00,75.3,74.1,30.10,NNW,327,0.0,0.0,96,0.00,,SCT050,0.00,0.00,VWS V14.01,2013-07-31 10:22:00,
2013-07-31 06:27:00,75.3,74.1,30.10,NNW,334,0.0,0.0,96,0.00,,SCT050,0.00,0.00,VWS V14.01,2013-07-31 10:27:00,
2013-07-31 06:32:00,75.2,74.0,30.10,NNW,335,0.0,0.0,96,0.00,,SCT050,0.00,5.00,VWS V14.01,2013-07-31 10:32:00,
2013-07-31 06:37:00,75.2,74.0,30.10,NNW,335,0.0,1.0,96,0.00,,SCT050,0.00,9.00,VWS V14.01,2013-07-31 10:37:00,
2013-07-31 06:42:00,75.2,74.3,30.10,NNW,335,1.0,1.0,97,0.00,,SCT050,0.00,12.00,VWS V14.01,2013-07-31 10:42:00,
2013-07-31 06:47:00,75.2,74.3,30.10,NNW,335,1.0,1.0,97,0.00,,SCT050,0.00,19.00,VWS V14.01,2013-07-31 10:47:00,
2013-07-31 06:52:00,75.1,74.2,30.11,NNW,335,0.0,0.0,97,0.00,,SCT050,0.00,25.00,VWS V14.01,2013-07-31 10:52:00,
2013-07-31 06:57:00,75.1,74.2,30.10,NNW,335,0.0,0.0,97,0.00,,SCT050,0.00,30.00,VWS V14.01,2013-07-31 10:57:00,
2013-07-31 07:02:00,75.1,74.2,30.11,NNW,335,0.0,0.0,97,0.00,,SCT013,0.00,46.00,VWS V14.01,2013-07-31 11:02:00,
2013-07-31 07:07:00,75.2,74.3,30.11,NNW,335,0.0,0.0,97,0.00,,SCT013,0.00,77.00,VWS V14.01,2013-07-31 11:07:00,
2013-07-31 07:12:00,75.4,74.5,30.11,NNW,335,0.0,0.0,97,0.00,,SCT013,0.00,102.00,VWS V14.01,2013-07-31 11:12:00,
2013-07-31 07:17:00,75.7,74.8,30.11,NNW,335,0.0,1.0,97,0.00,,SCT013,0.00,118.00,VWS V14.01,2013-07-31 11:17:00,
2013-07-31 07:22:00,75.8,74.9,30.11,North,355,0.0,1.0,97,0.00,,SCT013,0.00,116.00,VWS V14.01,2013-07-31 11:22:00,
2013-07-31 07:27:00,76.1,75.2,30.11,North,355,0.0,0.0,97,0.00,,SCT013,0.00,83.00,VWS V14.01,2013-07-31 11:27:00,
2013-07-31 07:32:00,76.2,75.0,30.11,North,355,0.0,1.0,96,0.00,,SCT013,0.00,67.00,VWS V14.01,2013-07-31 11:32:00,
2013-07-31 07:37:00,76.2,75.0,30.11,North,5,1.0,2.0,96,0.00,,SCT013,0.00,76.00,VWS V14.01,2013-07-31 11:37:00,
2013-07-31 07:42:00,76.3,75.1,30.11,North,5,0.0,0.0,96,0.00,,SCT013,0.00,74.00,VWS V14.01,2013-07-31 11:42:00,
2013-07-31 07:47:00,76.4,75.2,30.11,North,5,0.0,0.0,96,0.00,,SCT013,0.00,79.00,VWS V14.01,2013-07-31 11:47:00,
2013-07-31 07:52:00,76.6,75.4,30.11,East,89,0.0,0.0,96,0.00,,SCT013,0.00,84.00,VWS V14.01,2013-07-31 11:52:00,
2013-07-31 07:57:00,76.7,75.2,30.10,East,88,1.0,1.0,95,0.00,,SCT013,0.00,100.00,VWS V14.01,2013-07-31 11:57:00,
2013-07-31 08:02:00,77.0,75.5,30.10,East,88,0.0,1.0,95,0.00,,,0.00,146.00,VWS V14.01,2013-07-31 12:02:00,
2013-07-31 08:07:00,77.6,76.1,30.10,East,88,0.0,0.0,95,0.00,,,0.00,244.00,VWS V14.01,2013-07-31 12:07:00,
2013-07-31 08:12:00,78.4,76.2,30.10,NE,40,2.0,2.0,93,0.00,,,0.00,287.00,VWS V14.01,2013-07-31 12:12:00,
2013-07-31 08:17:00,79.1,76.6,30.10,NE,44,2.0,2.0,92,0.00,,,0.00,327.00,VWS V14.01,2013-07-31 12:17:00,
2013-07-31 08:22:00,79.6,76.4,30.10,East,84,3.0,3.0,90,0.00,,,0.00,355.00,VWS V14.01,2013-07-31 12:22:00,
2013-07-31 08:27:00,80.0,76.5,30.10,East,84,2.0,2.0,89,0.00,,,0.00,329.00,VWS V14.01,2013-07-31 12:27:00,
2013-07-31 08:32:00,80.1,76.2,30.10,East,98,2.0,3.0,88,0.00,,,0.00,197.00,VWS V14.01,2013-07-31 12:32:00,
2013-07-31 08:37:00,80.0,76.8,30.10,ENE,59,1.0,1.0,90,0.00,,,0.00,373.00,VWS V14.01,2013-07-31 12:37:00,
2013-07-31 08:42:00,80.6,76.7,30.11,NNE,28,0.0,1.0,88,0.00,,,0.00,420.00,VWS V14.01,2013-07-31 12:42:00,
2013-07-31 08:47:00,81.1,76.5,30.11,ENE,77,2.0,2.0,86,0.00,,,0.00,466.00,VWS V14.01,2013-07-31 12:47:00,
2013-07-31 08:52:00,81.2,76.6,30.11,East,86,0.0,1.0,86,0.00,,CLR,0.00,199.00,VWS V14.01,2013-07-31 12:52:00,
2013-07-31 08:57:00,81.0,76.4,30.11,ENE,63,1.0,2.0,86,0.00,,CLR,0.00,243.00,VWS V14.01,2013-07-31 12:57:00,
2013-07-31 09:02:00,81.1,76.2,30.12,ENE,59,0.0,3.0,85,0.00,,FEW012,0.00,299.00,VWS V14.01,2013-07-31 13:02:00,
2013-07-31 09:07:00,81.8,76.8,30.12,ENE,59,0.0,0.0,85,0.00,,FEW012,0.00,487.00,VWS V14.01,2013-07-31 13:07:00,
2013-07-31 09:12:00,82.7,77.0,30.12,NE,56,2.0,2.0,83,0.00,,FEW012,0.00,388.00,VWS V14.01,2013-07-31 13:12:00,
2013-07-31 09:17:00,83.0,76.2,30.12,NNE,28,1.0,3.0,80,0.00,,FEW012,0.00,339.00,VWS V14.01,2013-07-31 13:17:00,
2013-07-31 09:22:00,82.1,76.1,30.12,NNE,30,0.0,0.0,82,0.00,,FEW012,0.00,297.00,VWS V14.01,2013-07-31 13:22:00,
2013-07-31 09:27:00,82.2,76.9,30.12,SSE,150,1.0,2.0,84,0.00,,FEW012,0.00,475.00,VWS V14.01,2013-07-31 13:27:00,
2013-07-31 09:32:00,82.6,77.3,30.12,East,86,5.0,6.0,84,0.00,,FEW012,0.00,501.00,VWS V14.01,2013-07-31 13:32:00,
2013-07-31 09:37:00,82.5,77.2,30.12,ESE,111,2.0,2.0,84,0.00,,FEW012,0.00,501.00,VWS V14.01,2013-07-31 13:37:00,
2013-07-31 09:42:00,82.6,76.9,30.12,East,90,6.0,6.0,83,0.00,,FEW012,0.00,264.00,VWS V14.01,2013-07-31 13:42:00,
2013-07-31 09:47:00,82.0,76.7,30.12,East,93,1.0,5.0,84,0.00,,FEW012,0.00,234.00,VWS V14.01,2013-07-31 13:47:00,
2013-07-31 09:52:00,81.6,76.7,30.13,East,87,2.0,5.0,85,0.00,,FEW012,0.00,188.00,VWS V14.01,2013-07-31 13:52:00,
2013-07-31 09:57:00,81.7,76.4,30.12,ESE,104,1.0,4.0,84,0.00,,FEW012,0.00,343.00,VWS V14.01,2013-07-31 13:57:00,
2013-07-31 10:02:00,81.8,76.5,30.12,SE,138,3.0,3.0,84,0.00,,SCT015,0.00,214.00,VWS V14.01,2013-07-31 14:02:00,
2013-07-31 10:07:00,81.6,75.9,30.12,ESE,103,3.0,3.0,83,0.00,,SCT015,0.00,269.00,VWS V14.01,2013-07-31 14:07:00,
2013-07-31 10:12:00,81.7,76.8,30.11,ESE,121,4.0,4.0,85,0.00,,SCT015,0.00,548.00,VWS V14.01,2013-07-31 14:12:00,
2013-07-31 10:17:00,82.4,77.1,30.11,ESE,111,2.0,3.0,84,0.00,,SCT015,0.00,478.00,VWS V14.01,2013-07-31 14:17:00,
2013-07-31 10:22:00,82.4,76.7,30.12,East,96,3.0,5.0,83,0.00,,SCT015,0.00,434.00,VWS V14.01,2013-07-31 14:22:00,
2013-07-31 10:27:00,81.8,76.5,30.12,East,88,3.0,5.0,84,0.00,,SCT015,0.00,445.00,VWS V14.01,2013-07-31 14:27:00,
2013-07-31 10:32:00,82.1,76.8,30.12,East,100,6.0,6.0,84,0.00,,SCT015,0.00,439.00,VWS V14.01,2013-07-31 14:32:00,
2013-07-31 10:37:00,81.8,76.5,30.12,SSE,155,3.0,6.0,84,0.00,,SCT015,0.00,531.00,VWS V14.01,2013-07-31 14:37:00,
2013-07-31 10:42:00,82.1,76.4,30.12,SE,126,5.0,5.0,83,0.00,,SCT015,0.00,540.00,VWS V14.01,2013-07-31 14:42:00,
2013-07-31 10:47:00,82.5,77.2,30.12,East,90,6.0,6.0,84,0.00,,SCT015,0.00,519.00,VWS V14.01,2013-07-31 14:47:00,
2013-07-31 10:52:00,82.7,77.0,30.12,NE,42,4.0,4.0,83,0.00,,SCT015,0.00,795.00,VWS V14.01,2013-07-31 14:52:00,
2013-07-31 10:57:00,82.9,77.2,30.12,NE,47,2.0,5.0,83,0.00,,SCT015,0.00,504.00,VWS V14.01,2013-07-31 14:57:00,
2013-07-31 11:02:00,82.8,76.8,30.12,SSE,166,1.0,5.0,82,0.00,,SCT015,0.00,446.00,VWS V14.01,2013-07-31 15:02:00,
2013-07-31 11:07:00,82.6,76.9,30.12,East,87,3.0,6.0,83,0.00,,SCT015,0.00,555.00,VWS V14.01,2013-07-31 15:07:00,
2013-07-31 11:12:00,82.7,77.0,30.12,East,83,3.0,5.0,83,0.00,,SCT028,0.00,601.00,VWS V14.01,2013-07-31 15:12:00,
2013-07-31 11:17:00,83.1,77.4,30.12,East,94,2.0,2.0,83,0.00,,SCT028,0.00,649.00,VWS V14.01,2013-07-31 15:17:00,
2013-07-31 11:22:00,83.6,76.8,30.12,SE,132,3.0,4.0,80,0.00,,SCT028,0.00,645.00,VWS V14.01,2013-07-31 15:22:00,
2013-07-31 11:27:00,83.9,77.1,30.12,East,98,3.0,5.0,80,0.00,,SCT028,0.00,752.00,VWS V14.01,2013-07-31 15:27:00,
2013-07-31 11:32:00,83.9,77.1,30.11,ESE,103,5.0,5.0,80,0.00,,SCT028,0.00,965.00,VWS V14.01,2013-07-31 15:32:00,
2013-07-31 11:37:00,84.2,76.6,30.11,East,101,7.0,7.0,78,0.00,,SCT028,0.00,933.00,VWS V14.01,2013-07-31 15:37:00,
2013-07-31 11:42:00,84.2,77.0,30.11,ESE,102,3.0,4.0,79,0.00,,SCT016,0.00,795.00,VWS V14.01,2013-07-31 15:42:00,
2013-07-31 11:47:00,84.7,77.5,30.11,SSE,159,5.0,6.0,79,0.00,,SCT016,0.00,833.00,VWS V14.01,2013-07-31 15:47:00,
2013-07-31 11:52:00,85.2,77.6,30.11,East,95,5.0,5.0,78,0.00,,SCT016,0.00,758.00,VWS V14.01,2013-07-31 15:52:00,
2013-07-31 11:57:00,84.6,76.6,30.11,ESE,111,2.0,4.0,77,0.00,,SCT016,0.00,691.00,VWS V14.01,2013-07-31 15:57:00,
2013-07-31 12:02:00,84.8,76.4,30.11,East,88,2.0,6.0,76,0.00,,SCT016,0.00,737.00,VWS V14.01,2013-07-31 16:02:00,
2013-07-31 12:07:00,83.9,76.3,30.11,ESE,118,3.0,3.0,78,0.00,,SCT016,0.00,432.00,VWS V14.01,2013-07-31 16:07:00,
2013-07-31 12:12:00,83.4,76.2,30.11,SSE,157,4.0,4.0,79,0.00,,SCT016,0.00,410.00,VWS V14.01,2013-07-31 16:12:00,
2013-07-31 12:17:00,83.5,75.9,30.11,ENE,74,1.0,5.0,78,0.00,,SCT016,0.00,390.00,VWS V14.01,2013-07-31 16:17:00,
2013-07-31 12:22:00,83.6,76.8,30.10,ESE,122,3.0,6.0,80,0.00,,SCT016,0.00,322.00,VWS V14.01,2013-07-31 16:22:00,
2013-07-31 12:27:00,82.9,75.7,30.10,ENE,66,5.0,8.0,79,0.00,,SCT016,0.00,302.00,VWS V14.01,2013-07-31 16:27:00,
2013-07-31 12:32:00,82.6,76.2,30.10,East,86,1.0,3.0,81,0.00,,SCT016,0.00,322.00,VWS V14.01,2013-07-31 16:32:00,
2013-07-31 12:37:00,82.8,76.0,30.10,East,84,2.0,4.0,80,0.00,,SCT016,0.00,334.00,VWS V14.01,2013-07-31 16:37:00,
2013-07-31 12:42:00,82.3,75.9,30.10,East,97,1.0,4.0,81,0.00,,SCT016,0.00,373.00,VWS V14.01,2013-07-31 16:42:00,
2013-07-31 12:47:00,82.7,76.3,30.10,ESE,123,2.0,5.0,81,0.00,,SCT016,0.00,399.00,VWS V14.01,2013-07-31 16:47:00,
2013-07-31 12:52:00,82.5,76.1,30.10,East,89,1.0,5.0,81,0.00,,SCT016,0.00,443.00,VWS V14.01,2013-07-31 16:52:00,
2013-07-31 12:57:00,82.9,76.5,30.10,ESE,102,1.0,3.0,81,0.00,,SCT016,0.00,394.00,VWS V14.01,2013-07-31 16:57:00,
2013-07-31 13:02:00,82.7,75.5,30.10,SE,127,4.0,4.0,79,0.00,,SCT020,0.00,420.00,VWS V14.01,2013-07-31 17:02:00,
2013-07-31 13:07:00,82.9,75.7,30.10,East,83,1.0,5.0,79,0.00,,SCT020,0.00,494.00,VWS V14.01,2013-07-31 17:07:00,
2013-07-31 13:12:00,83.2,76.0,30.09,East,101,1.0,2.0,79,0.00,,SCT020,0.00,476.00,VWS V14.01,2013-07-31 17:12:00,
2013-07-31 13:17:00,83.2,75.6,30.09,ESE,117,4.0,4.0,78,0.00,,SCT020,0.00,403.00,VWS V14.01,2013-07-31 17:17:00,
2013-07-31 13:23:00,82.6,75.8,30.09,East,80,3.0,5.0,80,0.00,,SCT020,0.00,364.00,VWS V14.01,2013-07-31 17:23:00,
2013-07-31 13:28:00,82.7,75.9,30.09,ENE,78,2.0,6.0,80,0.00,,SCT020,0.00,362.00,VWS V14.01,2013-07-31 17:28:00,
2013-07-31 13:33:00,82.8,76.0,30.09,ESE,105,2.0,3.0,80,0.00,,SCT020,0.00,353.00,VWS V14.01,2013-07-31 17:33:00,
2013-07-31 13:38:00,82.6,76.2,30.09,SE,146,3.0,4.0,81,0.00,,SCT020,0.00,325.00,VWS V14.01,2013-07-31 17:38:00,
2013-07-31 13:43:00,82.7,75.9,30.09,SE,130,4.0,4.0,80,0.00,,SCT020,0.00,294.00,VWS V14.01,2013-07-31 17:43:00,
2013-07-31 13:48:00,82.3,75.9,30.09,East,89,5.0,5.0,81,0.00,,SCT020,0.00,248.00,VWS V14.01,2013-07-31 17:48:00,
2013-07-31 13:53:00,82.1,75.7,30.09,East,93,1.0,4.0,81,0.00,,SCT020,0.00,250.00,VWS V14.01,2013-07-31 17:53:00,
2013-07-31 13:58:00,82.3,76.3,30.09,East,84,0.0,2.0,82,0.00,,SCT020,0.00,274.00,VWS V14.01,2013-07-31 17:58:00,
2013-07-31 14:03:00,82.7,76.3,30.09,SW,217,2.0,3.0,81,0.00,,SCT020,0.00,283.00,VWS V14.01,2013-07-31 18:03:00,
2013-07-31 14:08:00,82.7,76.3,30.08,East,98,1.0,3.0,81,0.00,,SCT020,0.00,269.00,VWS V14.01,2013-07-31 18:08:00,
2013-07-31 14:13:00,82.3,76.3,30.08,ESE,104,1.0,2.0,82,0.00,,SCT020,0.00,274.00,VWS V14.01,2013-07-31 18:13:00,
2013-07-31 14:18:00,82.6,76.2,30.08,South,183,0.0,2.0,81,0.00,,SCT020,0.00,271.00,VWS V14.01,2013-07-31 18:18:00,
2013-07-31 14:23:00,82.7,76.3,30.08,East,87,2.0,2.0,81,0.00,,SCT020,0.00,258.00,VWS V14.01,2013-07-31 18:23:00,
2013-07-31 14:28:00,82.5,76.1,30.08,ESE,114,2.0,2.0,81,0.00,,SCT020,0.00,246.00,VWS V14.01,2013-07-31 18:28:00,
2013-07-31 14:33:00,82.4,76.0,30.08,SSE,153,2.0,3.0,81,0.00,,SCT020,0.00,221.00,VWS V14.01,2013-07-31 18:33:00,
2013-07-31 14:38:00,82.5,76.4,30.08,ESE,113,3.0,3.0,82,0.00,,SCT020,0.00,204.00,VWS V14.01,2013-07-31 18:38:00,
2013-07-31 14:43:00,82.4,76.4,30.08,SSW,208,3.0,3.0,82,0.00,,SCT020,0.00,192.00,VWS V14.01,2013-07-31 18:43:00,
2013-07-31 14:48:00,82.1,75.7,30.08,ESE,121,2.0,3.0,81,0.00,,SCT020,0.00,178.00,VWS V14.01,2013-07-31 18:48:00,
2013-07-31 14:53:00,82.0,76.0,30.08,East,80,1.0,3.0,82,0.00,,SCT020,0.00,179.00,VWS V14.01,2013-07-31 18:53:00,
2013-07-31 14:58:00,82.2,76.2,30.07,SSE,148,3.0,6.0,82,0.00,,SCT020,0.00,202.00,VWS V14.01,2013-07-31 18:58:00,
2013-07-31 15:03:00,82.3,75.9,30.07,South,182,1.0,3.0,81,0.00,,SCT020,0.00,218.00,VWS V14.01,2013-07-31 19:03:00,
2013-07-31 15:08:00,82.6,76.6,30.07,SE,138,1.0,4.0,82,0.00,,SCT020,0.00,223.00,VWS V14.01,2013-07-31 19:08:00,
2013-07-31 15:13:00,82.5,76.8,30.07,SE,143,2.0,3.0,83,0.00,,SCT020,0.00,223.00,VWS V14.01,2013-07-31 19:13:00,
2013-07-31 15:18:00,82.3,76.3,30.07,East,84,1.0,5.0,82,0.00,,SCT020,0.00,241.00,VWS V14.01,2013-07-31 19:18:00,
2013-07-31 15:23:00,82.4,76.4,30.06,South,179,2.0,3.0,82,0.00,,SCT020,0.00,283.00,VWS V14.01,2013-07-31 19:23:00,
2013-07-31 15:28:00,82.1,76.4,30.06,ESE,119,5.0,5.0,83,0.00,,SCT020,0.00,316.00,VWS V14.01,2013-07-31 19:28:00,
2013-07-31 15:33:00,82.3,76.3,30.06,SE,131,2.0,5.0,82,0.00,,SCT020,0.00,359.00,VWS V14.01,2013-07-31 19:33:00,
2013-07-31 15:38:00,82.3,76.6,30.05,ESE,104,3.0,3.0,83,0.00,,SCT020,0.00,287.00,VWS V14.01,2013-07-31 19:38:00,
2013-07-31 15:43:00,82.3,76.3,30.05,South,173,2.0,2.0,82,0.00,,SCT020,0.00,244.00,VWS V14.01,2013-07-31 19:43:00,
2013-07-31 15:47:00,82.0,76.0,30.05,SSE,159,1.0,3.0,82,0.00,,SCT020,0.00,214.00,VWS V14.01,2013-07-31 19:47:00,
2013-07-31 15:52:00,82.2,76.2,30.05,SSE,166,1.0,1.0,82,0.00,,SCT020,0.00,251.00,VWS V14.01,2013-07-31 19:52:00,
2013-07-31 15:58:00,82.4,75.6,30.05,SSE,148,2.0,4.0,80,0.00,,SCT020,0.00,251.00,VWS V14.01,2013-07-31 19:58:00,
2013-07-31 16:03:00,82.5,75.3,30.05,ESE,109,4.0,4.0,79,0.00,,SCT020,0.00,257.00,VWS V14.01,2013-07-31 20:03:00,
2013-07-31 16:08:00,82.5,74.9,30.05,ENE,65,1.0,2.0,78,0.00,,SCT020,0.00,264.00,VWS V14.01,2013-07-31 20:08:00,
2013-07-31 16:13:00,82.9,75.3,30.05,SE,131,1.0,3.0,78,0.00,,SCT020,0.00,295.00,VWS V14.01,2013-07-31 20:13:00,
2013-07-31 16:18:00,82.8,75.6,30.05,SSE,153,1.0,1.0,79,0.00,,SCT020,0.00,272.00,VWS V14.01,2013-07-31 20:18:00,
2013-07-31 16:23:00,83.0,75.4,30.05,SSE,159,3.0,5.0,78,0.00,,SCT020,0.00,253.00,VWS V14.01,2013-07-31 20:23:00,
2013-07-31 16:28:00,82.9,75.3,30.04,South,190,2.0,2.0,78,0.00,,SCT020,0.00,260.00,VWS V14.01,2013-07-31 20:28:00,
2013-07-31 16:33:00,83.1,75.2,30.04,East,85,2.0,3.0,77,0.00,,SCT020,0.00,225.00,VWS V14.01,2013-07-31 20:33:00,
2013-07-31 16:38:00,83.0,75.4,30.04,East,101,3.0,5.0,78,0.00,,SCT020,0.00,209.00,VWS V14.01,2013-07-31 20:38:00,
2013-07-31 16:43:00,82.9,75.7,30.04,South,170,1.0,1.0,79,0.00,,SCT020,0.00,165.00,VWS V14.01,2013-07-31 20:43:00,
2013-07-31 16:48:00,82.9,75.7,30.03,ESE,105,0.0,2.0,79,0.00,,SCT020,0.00,118.00,VWS V14.01,2013-07-31 20:48:00,
2013-07-31 16:53:00,82.5,75.3,30.04,SE,143,3.0,3.0,79,0.00,,SCT020,0.00,118.00,VWS V14.01,2013-07-31 20:53:00,
2013-07-31 16:58:00,82.3,75.5,30.03,West,269,3.0,3.0,80,0.00,,SCT020,0.00,109.00,VWS V14.01,2013-07-31 20:58:00,
2013-07-31 17:02:00,82.4,75.6,30.03,SSW,194,3.0,4.0,80,0.00,,SCT020,0.00,90.00,VWS V14.01,2013-07-31 21:02:00,
2013-07-31 17:07:00,82.3,75.5,30.03,South,170,2.0,6.0,80,0.00,,SCT020,0.00,65.00,VWS V14.01,2013-07-31 21:07:00,
2013-07-31 17:12:00,82.4,75.6,30.03,SSW,212,4.0,4.0,80,0.00,,SCT020,0.00,56.00,VWS V14.01,2013-07-31 21:12:00,
2013-07-31 17:17:00,82.4,76.0,30.03,SW,227,0.0,4.0,81,0.00,,SCT020,0.00,60.00,VWS V14.01,2013-07-31 21:17:00,
2013-07-31 17:22:00,82.3,75.9,30.03,SW,232,3.0,4.0,81,0.00,,SCT020,0.00,76.00,VWS V14.01,2013-07-31 21:22:00,
2013-07-31 17:27:00,82.1,75.3,30.03,South,178,2.0,3.0,80,0.00,,SCT020,0.00,81.00,VWS V14.01,2013-07-31 21:27:00,
2013-07-31 17:32:00,82.0,75.2,30.02,South,173,2.0,3.0,80,0.00,,SCT020,0.00,79.00,VWS V14.01,2013-07-31 21:32:00,
2013-07-31 17:37:00,81.9,75.9,30.02,SSW,202,1.0,2.0,82,0.00,,SCT020,0.00,63.00,VWS V14.01,2013-07-31 21:37:00,
2013-07-31 17:42:00,82.0,76.0,30.02,SSW,200,0.0,2.0,82,0.00,,SCT020,0.00,54.00,VWS V14.01,2013-07-31 21:42:00,
2013-07-31 17:47:00,81.8,76.1,30.02,South,182,1.0,2.0,83,0.00,,SCT020,0.00,56.00,VWS V14.01,2013-07-31 21:47:00,
2013-07-31 17:53:00,81.8,76.5,30.02,South,174,2.0,2.0,84,0.00,,SCT020,0.00,54.00,VWS V14.01,2013-07-31 21:53:00,
2013-07-31 17:58:00,81.9,76.2,30.02,WSW,242,8.0,8.0,83,0.00,,SCT020,0.00,54.00,VWS V14.01,2013-07-31 21:58:00,
2013-07-31 18:03:00,81.8,75.8,30.02,SSW,210,3.0,6.0,82,0.00,,SCT017,0.00,62.00,VWS V14.01,2013-07-31 22:03:00,
2013-07-31 18:08:00,81.7,76.0,30.02,South,182,1.0,5.0,83,0.00,,SCT017,0.00,56.00,VWS V14.01,2013-07-31 22:08:00,
2013-07-31 18:13:00,81.8,76.5,30.02,SW,221,4.0,8.0,84,0.00,,SCT017,0.00,54.00,VWS V14.01,2013-07-31 22:13:00,
2013-07-31 18:18:00,81.5,76.6,30.02,SW,224,7.0,9.0,85,0.00,,SCT017,0.00,63.00,VWS V14.01,2013-07-31 22:18:00,
2013-07-31 18:23:00,81.2,75.9,30.02,SW,234,6.0,9.0,84,0.00,,SCT017,0.00,62.00,VWS V14.01,2013-07-31 22:23:00,
2013-07-31 18:28:00,81.1,76.2,30.02,SSW,209,7.0,7.0,85,0.00,,SCT017,0.00,53.00,VWS V14.01,2013-07-31 22:28:00,
2013-07-31 18:33:00,81.0,76.4,30.02,SW,236,3.0,4.0,86,0.00,,SCT017,0.00,44.00,VWS V14.01,2013-07-31 22:33:00,
2013-07-31 18:38:00,80.8,76.2,30.02,SW,219,5.0,8.0,86,0.00,,SCT017,0.00,40.00,VWS V14.01,2013-07-31 22:38:00,
2013-07-31 18:43:00,80.7,75.8,30.02,SW,229,5.0,9.0,85,0.00,,SCT017,0.00,37.00,VWS V14.01,2013-07-31 22:43:00,
2013-07-31 18:48:00,80.7,75.8,30.02,SW,234,7.0,7.0,85,0.00,,SCT017,0.00,32.00,VWS V14.01,2013-07-31 22:48:00,
2013-07-31 18:53:00,80.6,75.3,30.03,SSW,196,7.0,8.0,84,0.00,,SCT017,0.00,23.00,VWS V14.01,2013-07-31 22:53:00,
2013-07-31 18:58:00,80.5,75.2,30.02,SSW,200,6.0,7.0,84,0.00,,SCT017,0.00,19.00,VWS V14.01,2013-07-31 22:58:00,
2013-07-31 19:03:00,80.5,75.6,30.03,SW,227,3.0,4.0,85,0.00,,SCT017,0.00,16.00,VWS V14.01,2013-07-31 23:03:00,
2013-07-31 19:08:00,80.5,75.6,30.03,SW,233,4.0,4.0,85,0.00,,SCT017,0.00,14.00,VWS V14.01,2013-07-31 23:08:00,
2013-07-31 19:13:00,80.5,75.9,30.03,SW,227,7.0,8.0,86,0.00,,BKN200,0.00,12.00,VWS V14.01,2013-07-31 23:13:00,
2013-07-31 19:18:00,80.5,76.3,30.03,SW,215,3.0,4.0,87,0.00,,BKN200,0.00,11.00,VWS V14.01,2013-07-31 23:18:00,
2013-07-31 19:23:00,80.4,76.2,30.03,WSW,248,4.0,6.0,87,0.00,,BKN200,0.00,9.00,VWS V14.01,2013-07-31 23:23:00,
2013-07-31 19:28:00,80.0,75.4,30.04,SW,229,2.0,5.0,86,0.00,,BKN200,0.00,7.00,VWS V14.01,2013-07-31 23:28:00,
2013-07-31 19:33:00,79.7,74.8,30.04,SSW,202,4.0,5.0,85,0.00,,BKN200,0.00,7.00,VWS V14.01,2013-07-31 23:33:00,
2013-07-31 19:38:00,79.2,73.9,30.04,SW,229,3.0,4.0,84,0.00,,BKN200,0.00,5.00,VWS V14.01,2013-07-31 23:38:00,
2013-07-31 19:43:00,78.9,73.7,30.04,WSW,252,1.0,2.0,84,0.00,,BKN200,0.00,5.00,VWS V14.01,2013-07-31 23:43:00,
2013-07-31 19:48:00,78.4,72.8,30.04,WSW,246,1.0,3.0,83,0.00,,BKN200,0.00,0.00,VWS V14.01,2013-07-31 23:48:00,
2013-07-31 19:53:00,78.0,72.8,30.04,West,264,1.0,1.0,84,0.00,,BKN200,0.00,0.00,VWS V14.01,2013-07-31 23:53:00,
2013-07-31 19:58:00,77.6,73.4,30.04,West,267,2.0,2.0,87,0.00,,BKN200,0.00,0.00,VWS V14.01,2013-07-31 23:58:00,
2013-07-31 20:03:00,77.4,73.2,30.04,WNW,292,1.0,2.0,87,0.00,,BKN200,0.00,0.00,VWS V14.01,2013-08-01 00:03:00,
2013-07-31 20:08:00,77.1,72.9,30.04,WNW,296,0.0,2.0,87,0.00,,BKN200,0.00,0.00,VWS V14.01,2013-08-01 00:08:00,
2013-07-31 20:13:00,76.8,72.6,30.04,West,276,1.0,3.0,87,0.00,,BKN200,0.00,0.00,VWS V14.01,2013-08-01 00:13:00,
2013-07-31 20:18:00,76.6,73.4,30.04,NNW,331,3.0,3.0,90,0.01,,BKN200,0.01,0.00,VWS V14.01,2013-08-01 00:18:00,
2013-07-31 20:23:00,76.2,73.4,30.04,NNW,335,1.0,2.0,91,0.01,,BKN200,0.01,0.00,VWS V14.01,2013-08-01 00:23:00,
2013-07-31 20:28:00,75.7,72.2,30.03,North,360,0.0,2.0,89,0.01,,BKN200,0.01,0.00,VWS V14.01,2013-08-01 00:28:00,
2013-07-31 20:33:00,75.6,72.5,30.03,NNW,346,0.0,0.0,90,0.01,,BKN200,0.01,0.00,VWS V14.01,2013-08-01 00:33:00,
2013-07-31 20:38:00,75.2,72.4,30.04,NNW,340,2.0,2.0,91,0.01,,BKN200,0.01,0.00,VWS V14.01,2013-08-01 00:38:00,
2013-07-31 20:43:00,74.9,72.4,30.04,NNW,340,0.0,1.0,92,0.01,,BKN200,0.01,0.00,VWS V14.01,2013-08-01 00:43:00,
2013-07-31 20:48:00,74.7,72.6,30.04,NNW,340,0.0,0.0,93,0.02,,BKN200,0.02,0.00,VWS V14.01,2013-08-01 00:48:00,
2013-07-31 20:53:00,74.6,72.8,30.04,NNW,340,0.0,0.0,94,0.02,,BKN200,0.02,0.00,VWS V14.01,2013-08-01 00:53:00,
2013-07-31 20:58:00,74.6,72.8,30.04,NNW,340,0.0,1.0,94,0.02,,BKN200,0.02,0.00,VWS V14.01,2013-08-01 00:58:00,
2013-07-31 21:03:00,74.6,73.1,30.04,NNW,340,0.0,2.0,95,0.02,,FEW020,0.02,0.00,VWS V14.01,2013-08-01 01:03:00,
2013-07-31 21:08:00,74.7,73.2,30.04,NNW,340,1.0,1.0,95,0.03,,FEW020,0.03,0.00,VWS V14.01,2013-08-01 01:08:00,
2013-07-31 21:13:00,75.0,73.8,30.04,NNW,337,0.0,1.0,96,0.03,,FEW020,0.03,0.00,VWS V14.01,2013-08-01 01:13:00,
2013-07-31 21:18:00,75.0,73.8,30.04,NNW,337,0.0,2.0,96,0.03,,FEW020,0.04,0.00,VWS V14.01,2013-08-01 01:18:00,
2013-07-31 21:23:00,75.1,73.9,30.04,NNW,337,0.0,0.0,96,0.03,,FEW020,0.04,0.00,VWS V14.01,2013-08-01 01:23:00,
2013-07-31 21:28:00,75.3,74.1,30.04,WSW,254,1.0,4.0,96,0.03,,FEW020,0.04,0.00,VWS V14.01,2013-08-01 01:28:00,
2013-07-31 21:33:00,75.6,74.4,30.04,WSW,255,0.0,0.0,96,0.03,,FEW020,0.04,0.00,VWS V14.01,2013-08-01 01:33:00,
2013-07-31 21:38:00,76.0,75.1,30.04,WSW,250,2.0,3.0,97,0.04,,FEW020,0.05,0.00,VWS V14.01,2013-08-01 01:38:00,
2013-07-31 21:43:00,76.3,75.4,30.04,WSW,250,2.0,2.0,97,0.04,,FEW020,0.05,0.00,VWS V14.01,2013-08-01 01:43:00,
2013-07-31 21:48:00,76.6,75.4,30.04,WSW,250,2.0,2.0,96,0.03,,FEW020,0.05,0.00,VWS V14.01,2013-08-01 01:48:00,
2013-07-31 21:53:00,76.7,75.5,30.04,WSW,248,2.0,3.0,96,0.03,,FEW020,0.05,0.00,VWS V14.01,2013-08-01 01:53:00,
2013-07-31 21:58:00,76.6,75.4,30.04,WSW,248,0.0,1.0,96,0.03,,FEW020,0.05,0.00,VWS V14.01,2013-08-01 01:58:00,
2013-07-31 22:02:00,76.5,75.3,30.04,WSW,249,0.0,2.0,96,0.03,,FEW020,0.05,0.00,VWS V14.01,2013-08-01 02:02:00,
2013-07-31 22:08:00,76.5,75.3,30.04,WSW,249,2.0,2.0,96,0.02,,FEW020,0.05,0.00,VWS V14.01,2013-08-01 02:08:00,
2013-07-31 22:12:00,76.5,75.3,30.04,WSW,249,1.0,2.0,96,0.03,,-RA,0.06,0.00,VWS V14.01,2013-08-01 02:12:00,
2013-07-31 22:18:00,76.4,75.2,30.04,WSW,250,0.0,1.0,96,0.02,,-RA,0.06,0.00,VWS V14.01,2013-08-01 02:18:00,
2013-07-31 22:22:00,76.4,75.2,30.04,WSW,250,0.0,0.0,96,0.02,,-RA,0.06,0.00,VWS V14.01,2013-08-01 02:22:00,
2013-07-31 22:28:00,76.4,75.2,30.04,WSW,250,2.0,4.0,96,0.03,,-RA,0.07,0.00,VWS V14.01,2013-08-01 02:28:00,
2013-07-31 22:33:00,76.4,75.2,30.04,WSW,255,0.0,4.0,96,0.03,,-RA,0.07,0.00,VWS V14.01,2013-08-01 02:33:00,
2013-07-31 22:38:00,76.5,75.3,30.04,WSW,255,1.0,2.0,96,0.02,,-RA,0.07,0.00,VWS V14.01,2013-08-01 02:38:00,
2013-07-31 22:43:00,76.5,75.3,30.04,WSW,257,3.0,3.0,96,0.02,,-RA,0.07,0.00,VWS V14.01,2013-08-01 02:43:00,
2013-07-31 22:48:00,76.4,75.2,30.04,WSW,252,3.0,4.0,96,0.08,,-RA,0.13,0.00,VWS V14.01,2013-08-01 02:48:00,
2013-07-31 22:53:00,76.0,74.5,30.03,SSW,207,4.0,6.0,95,0.08,,-RA,0.13,0.00,VWS V14.01,2013-08-01 02:53:00,
2013-07-31 22:58:00,75.7,74.2,30.03,West,270,2.0,2.0,95,0.08,,-RA,0.13,0.00,VWS V14.01,2013-08-01 02:58:00,
2013-07-31 23:03:00,75.6,74.1,30.03,WSW,258,2.0,3.0,95,0.08,,BKN029,0.13,0.00,VWS V14.01,2013-08-01 03:03:00,
2013-07-31 23:08:00,75.6,74.4,30.02,SW,233,2.0,4.0,96,0.09,,BKN029,0.14,0.00,VWS V14.01,2013-08-01 03:08:00,
2013-07-31 23:13:00,75.7,74.5,30.02,SW,225,2.0,4.0,96,0.08,,BKN029,0.14,0.00,VWS V14.01,2013-08-01 03:13:00,
2013-07-31 23:18:00,75.7,74.5,30.02,WSW,252,3.0,3.0,96,0.08,,BKN029,0.14,0.00,VWS V14.01,2013-08-01 03:18:00,
2013-07-31 23:23:00,75.7,74.5,30.01,SW,223,0.0,3.0,96,0.08,,FEW028,0.14,0.00,VWS V14.01,2013-08-01 03:23:00,
2013-07-31 23:28:00,75.7,74.5,30.01,WSW,246,1.0,3.0,96,0.07,,FEW028,0.14,0.00,VWS V14.01,2013-08-01 03:28:00,
2013-07-31 23:33:00,75.7,74.5,30.01,WSW,255,1.0,4.0,96,0.07,,FEW028,0.14,0.00,VWS V14.01,2013-08-01 03:33:00,
2013-07-31 23:38:00,75.6,74.4,30.01,WSW,250,3.0,3.0,96,0.07,,FEW028,0.14,0.00,VWS V14.01,2013-08-01 03:38:00,
2013-07-31 23:43:00,75.6,74.4,30.01,WSW,239,2.0,3.0,96,0.07,,CLR,0.14,0.00,VWS V14.01,2013-08-01 03:43:00,
2013-07-31 23:48:00,75.5,74.3,30.01,SSW,200,2.0,3.0,96,0.03,,CLR,0.14,0.00,VWS V14.01,2013-08-01 03:48:00,
2013-07-31 23:53:00,75.5,74.3,30.01,WSW,252,2.0,2.0,96,0.01,,CLR,0.14,0.00,VWS V14.01,2013-08-01 03:53:00,
2013-07-31 23:57:00,75.4,74.2,30.01,WSW,258,1.0,3.0,96,0.01,,CLR,0.14,0.00,VWS V14.01,2013-08-01 03:57:00,